Date String (YYYY-MM-DD hh:mm:ss) UTC,Instrument flags,absolute air pressure of the measurement (hPa),sample flow rate (lpm),inlet stack bypass flow (lpm),air temperature of the measurement (°C),ambient temperature measured by the external sensor (°C),aerosol sample conditioner tube jacket temperature (°C),OPC LED temperature (°C),internal box temperature (°C),relative humidity of the measurement (%),span deviation,mass concentration of particles derived from Lorenz-Mie calculation of OPC scattering (μg/m³),mass concentration of particles derived from Lorenz-Mie calculation of OPC scattering (μg/m³),mass concentration of particles derived from Lorenz-Mie calculation of OPC scattering (μg/m³)
DateTimeUTC,F1_M11,P_M11,Q1_M11,Q2_M11,T1_M11,T2_M11,T3_M11,T4_M11,T5_M11,U1_M11,ZSPAN_M11,X0_M11,X2_M11,X1_M11
2024-03-26 00:00:00,SystemResetWarning,0818.3,4.98,000.00,018.4,017.6,000.0,027.1,020.2,14.3,0000.0,0009.52,0007.25,0007.04
2024-03-26 00:01:00,SystemResetWarning,0818.3,4.99,000.00,018.4,017.6,000.0,027.1,020.2,14.4,0000.0,0009.37,0007.21,0007.00
2024-03-26 00:02:00,SystemResetWarning,0818.3,5.01,000.00,018.4,017.6,000.0,027.1,020.2,14.4,0000.0,0009.19,0007.16,0006.98
2024-03-26 00:03:00,SystemResetWarning,0818.2,5.01,000.00,018.4,017.6,000.0,027.1,020.2,14.4,0000.0,0009.20,0007.13,0006.95
2024-03-26 00:04:00,SystemResetWarning,0818.2,4.99,000.00,018.4,017.6,000.0,027.1,020.1,14.4,0000.0,0009.23,0007.11,0006.92
2024-03-26 00:05:00,SystemResetWarning,0818.3,4.99,000.00,018.4,017.6,000.0,027.1,020.1,14.3,0000.0,0009.38,0007.08,0006.90
2024-03-26 00:06:00,SystemResetWarning,0818.3,5.00,000.00,018.4,017.6,000.0,027.1,020.1,14.3,0000.0,0009.33,0007.05,0006.88
2024-03-26 00:07:00,SystemResetWarning,0818.3,5.01,000.00,018.4,017.6,000.0,027.0,020.1,14.3,0000.0,0009.04,0007.02,0006.86
2024-03-26 00:08:00,SystemResetWarning,0818.3,5.00,000.00,018.4,017.5,000.0,027.0,020.1,14.3,0000.0,0008.82,0007.01,0006.84
2024-03-26 00:09:00,SystemResetWarning,0818.3,5.01,000.00,018.4,017.5,000.0,027.0,020.1,14.3,0000.0,0008.82,0007.01,0006.83
2024-03-26 00:10:00,SystemResetWarning,0818.3,5.00,000.00,018.4,017.5,000.0,027.0,020.1,14.2,0000.0,0008.88,0007.00,0006.82
2024-03-26 00:11:00,SystemResetWarning,0818.3,4.99,000.00,018.3,017.5,000.0,027.0,020.1,14.4,0000.0,0008.94,0006.99,0006.81
2024-03-26 00:12:00,SystemResetWarning,0818.4,4.99,000.00,018.3,017.5,000.0,027.0,020.1,14.5,0000.0,0009.00,0006.99,0006.81
2024-03-26 00:13:00,SystemResetWarning,0818.4,4.99,000.00,018.3,017.5,000.0,027.0,020.1,14.6,0000.0,0009.09,0006.98,0006.79
2024-03-26 00:14:00,SystemResetWarning,0818.4,5.01,000.00,018.3,017.5,000.0,027.0,020.1,14.5,0000.0,0009.08,0006.98,0006.78
2024-03-26 00:15:00,SystemResetWarning,0818.4,5.01,000.00,018.3,017.5,000.0,027.0,020.1,14.5,0000.0,0009.02,0006.97,0006.79
2024-03-26 00:16:00,SystemResetWarning,0818.4,4.99,000.00,018.3,017.5,000.0,027.0,020.1,14.5,0000.0,0008.84,0006.98,0006.79
2024-03-26 00:17:00,SystemResetWarning,0818.4,5.00,000.00,018.3,017.5,000.0,027.0,020.1,14.4,0000.0,0008.91,0007.03,0006.81
2024-03-26 00:18:00,SystemResetWarning,0818.4,4.99,000.00,018.3,017.5,000.0,027.0,020.1,14.5,0000.0,0008.94,0007.04,0006.82
2024-03-26 00:19:00,SystemResetWarning,0818.4,5.00,000.00,018.3,017.6,000.0,027.0,020.1,14.6,0000.0,0008.96,0007.05,0006.83
2024-03-26 00:20:00,SystemResetWarning,0818.4,5.01,000.00,018.3,017.6,000.0,027.0,020.1,14.5,0000.0,0008.92,0007.04,0006.82
2024-03-26 00:21:00,SystemResetWarning,0818.4,5.01,000.00,018.3,017.6,000.0,027.0,020.1,14.4,0000.0,0008.81,0007.03,0006.84
2024-03-26 00:22:00,SystemResetWarning,0818.4,4.99,000.00,018.3,017.6,000.0,027.0,020.1,14.4,0000.0,0008.68,0007.03,0006.87
2024-03-26 00:23:00,SystemResetWarning,0818.4,4.99,000.00,018.3,017.6,000.0,027.0,020.1,14.3,0000.0,0008.61,0007.04,0006.89
2024-03-26 00:24:00,SystemResetWarning,0818.4,5.00,000.00,018.3,017.6,000.0,026.9,020.1,14.3,0000.0,0008.86,0007.05,0006.92
2024-03-26 00:25:00,SystemResetWarning,0818.5,5.01,000.00,018.3,017.6,000.0,027.0,020.1,14.4,0000.0,0009.28,0007.07,0006.95
2024-03-26 00:26:00,SystemResetWarning,0818.5,5.01,000.00,018.3,017.6,000.0,027.0,020.1,14.4,0000.0,0009.30,0007.09,0006.97
2024-03-26 00:27:00,SystemResetWarning,0818.5,5.01,000.00,018.3,017.6,000.0,027.0,020.1,14.5,0000.0,0009.50,0007.11,0006.98
2024-03-26 00:28:00,SystemResetWarning,0818.5,4.99,000.00,018.3,017.6,000.0,026.9,020.1,14.6,0000.0,0009.50,0007.11,0007.00
2024-03-26 00:29:00,SystemResetWarning,0818.5,4.99,000.00,018.3,017.5,000.0,026.9,020.0,14.7,0000.0,0009.60,0007.17,0007.03
2024-03-26 00:30:00,SystemResetWarning,0818.5,5.01,000.00,018.3,017.5,000.0,026.9,020.0,14.7,0000.0,0010.55,0007.22,0007.07
2024-03-26 00:31:00,SystemResetWarning,0818.5,5.01,000.00,018.3,017.5,000.0,026.9,020.0,14.8,0000.0,0011.40,0007.27,0007.11
2024-03-26 00:32:00,SystemResetWarning,0818.5,5.00,000.00,018.3,017.5,000.0,026.9,020.0,14.8,0000.0,0011.45,0007.32,0007.15
2024-03-26 00:33:00,SystemResetWarning,0818.5,5.00,000.00,018.3,017.4,000.0,026.9,020.0,14.8,0000.0,0011.47,0007.34,0007.16
2024-03-26 00:34:00,SystemResetWarning,0818.5,5.00,000.00,018.3,017.4,000.0,026.9,020.0,14.9,0000.0,0011.49,0007.36,0007.18
2024-03-26 00:35:00,SystemResetWarning,0818.5,4.99,000.00,018.2,017.4,000.0,026.9,020.0,15.0,0000.0,0011.27,0007.37,0007.19
2024-03-26 00:36:00,SystemResetWarning,0818.5,5.00,000.00,018.2,017.4,000.0,026.9,020.0,14.9,0000.0,0010.73,0007.40,0007.20
2024-03-26 00:37:00,SystemResetWarning,0818.6,5.01,000.00,018.2,017.4,000.0,026.9,020.0,14.9,0000.0,0010.76,0007.41,0007.21
2024-03-26 00:38:00,SystemResetWarning,0818.6,5.00,000.00,018.2,017.4,000.0,026.9,020.0,14.9,0000.0,0011.19,0007.44,0007.23
2024-03-26 00:39:00,SystemResetWarning,0818.6,5.01,000.00,018.2,017.4,000.0,026.9,020.0,14.9,0000.0,0011.27,0007.45,0007.24
2024-03-26 00:40:00,SystemResetWarning,0818.6,5.01,000.00,018.2,017.4,000.0,026.9,020.0,14.9,0000.0,0011.17,0007.43,0007.25
2024-03-26 00:41:00,SystemResetWarning,0818.6,5.00,000.00,018.2,017.4,000.0,026.9,020.0,14.9,0000.0,0010.30,0007.42,0007.26
2024-03-26 00:42:00,SystemResetWarning,0818.6,4.99,000.00,018.2,017.4,000.0,026.9,020.0,14.9,0000.0,0009.67,0007.42,0007.27
2024-03-26 00:43:00,SystemResetWarning,0818.6,5.00,000.00,018.2,017.4,000.0,026.9,020.0,14.9,0000.0,0009.69,0007.41,0007.27
2024-03-26 00:44:00,SystemResetWarning,0818.6,5.00,000.00,018.2,017.3,000.0,026.9,020.0,15.0,0000.0,0009.77,0007.42,0007.29
2024-03-26 00:45:00,SystemResetWarning,0818.6,4.99,000.00,018.2,017.3,000.0,026.9,020.0,15.0,0000.0,0009.86,0007.42,0007.29
2024-03-26 00:46:00,SystemResetWarning,0818.6,5.01,000.00,018.2,017.3,000.0,026.9,020.0,14.9,0000.0,0009.87,0007.43,0007.31
2024-03-26 00:47:00,SystemResetWarning,0818.6,5.01,000.00,018.2,017.3,000.0,026.9,020.0,14.9,0000.0,0009.93,0007.45,0007.32
2024-03-26 00:48:00,SystemResetWarning,0818.6,5.00,000.00,018.2,017.3,000.0,026.9,020.0,15.1,0000.0,0010.11,0007.47,0007.33
2024-03-26 00:49:00,SystemResetWarning,0818.6,4.99,000.00,018.2,017.3,000.0,026.9,020.0,15.1,0000.0,0009.84,0007.48,0007.34
2024-03-26 00:50:00,SystemResetWarning,0818.6,4.99,000.00,018.2,017.3,000.0,026.9,020.0,15.0,0000.0,0009.75,0007.50,0007.36
2024-03-26 00:51:00,SystemResetWarning,0818.6,4.99,000.00,018.2,017.3,000.0,026.9,020.0,14.9,0000.0,0009.78,0007.50,0007.36
2024-03-26 00:52:00,SystemResetWarning,0818.6,5.01,000.00,018.2,017.3,000.0,026.9,020.0,14.9,0000.0,0009.74,0007.51,0007.36
2024-03-26 00:53:00,SystemResetWarning,0818.6,5.01,000.00,018.2,017.3,000.0,026.9,020.0,14.9,0000.0,0009.95,0007.53,0007.37
2024-03-26 00:54:00,SystemResetWarning,0818.6,5.00,000.00,018.2,017.3,000.0,026.9,020.0,14.8,0000.0,0010.35,0007.56,0007.39
2024-03-26 00:55:00,SystemResetWarning,0818.6,4.99,000.00,018.2,017.3,000.0,026.9,020.0,14.9,0000.0,0010.58,0007.60,0007.41
2024-03-26 00:56:00,SystemResetWarning,0818.6,5.00,000.00,018.2,017.3,000.0,026.9,020.0,14.9,0000.0,0010.48,0007.62,0007.42
2024-03-26 00:57:00,SystemResetWarning,0818.6,5.00,000.00,018.2,017.3,000.0,026.9,020.0,14.9,0000.0,0010.80,0007.65,0007.44
2024-03-26 00:58:00,SystemResetWarning,0818.6,4.99,000.00,018.2,017.3,000.0,026.9,020.0,14.9,0000.0,0011.04,0007.67,0007.45
2024-03-26 00:59:00,SystemResetWarning,0818.6,5.00,000.00,018.2,017.3,000.0,026.9,020.0,14.9,0000.0,0010.94,0007.68,0007.47
